Montevideo, MN

2:21 AM CST on February 08, 2016 (GMT -0600)
Montevideo-Chippewa County

Weather History for KMVE - September, 2012

Change the Weather History Date:

Monday, September 17, 2012

  Actual Average Record
Temperature  
Mean Temperature 52 °F -  
Max Temperature 62 °F 72 °F 91 °F (1948)
Min Temperature 42 °F 48 °F 35 °F (1971)
Degree Days  
Heating Degree Days 13    
Growing Degree Days 2 (Base 50)    
Moisture  
Dew Point 38 °F    
Average Humidity 65    
Maximum Humidity 93    
Minimum Humidity 30    
Precipitation  
Precipitation 0.16 in - - ()
Sea Level Pressure  
Sea Level Pressure 30.03 in    
Wind  
Wind Speed 9 mph (North)    
Max Wind Speed 25 mph    
Max Gust Speed 29 mph    
Visibility 10 miles    
Events Rain , Thunderstorm    
Averages and records for this station are not official NWS values.
T = Trace of Precipitation, MM = Missing Value Source: NWS Daily Summary

Daily Weather History Graph

Daily Weather History Graph

Search for Another Location

Airport or City:

Trip Planner

Search our weather history database for the weather conditions in past years. The results will help you decide how hot, cold, wet, or windy it might be!

Date:

Astronomy

Sep. 17, 2012 Rise Set
Actual Time 7:04 AM CDT 7:28 PM CDT
Civil Twilight 6:35 AM CDT 7:58 PM CDT
Nautical Twilight 6:00 AM CDT 8:32 PM CDT
Astronomical Twilight 5:24 AM CDT 9:08 PM CDT
Moon 9:02 AM CDT (9/17) 8:02 PM CDT (9/17)
Length of Visible Light 13h 23m
Length of Day
12h 24m
Waxing Crescent, 3% of the Moon is Illuminated
Sep 17
Waxing Crescent
Sep 22
First Quarter
Sep 29
Full
Oct 8
Last Quarter
Oct 15
New

Hourly Weather History & Observations

Time (CDT) Temp. Windchill Dew Point Humidity Pressure Visibility Wind Dir Wind Speed Gust Speed Precip Events Conditions
12:14 AM 53.6 °F - 39.2 °F 58% 30.01 in 10.0 mi NNE 15.0 mph 18.4 mph N/A   Overcast
12:34 AM 53.6 °F - 42.8 °F 67% 30.03 in 10.0 mi North 5.8 mph - N/A Rain Light Rain
12:54 AM 51.8 °F - 44.6 °F 76% 30.03 in 10.0 mi North 10.4 mph - 0.02 in Rain Light Rain
1:14 AM 50.0 °F - 46.4 °F 87% 30.00 in 10.0 mi NE 6.9 mph - 0.07 in Rain , Thunderstorm Rain
1:34 AM 50.0 °F - 46.4 °F 87% 30.02 in 10.0 mi North 9.2 mph - 0.09 in Rain Light Rain
1:54 AM 50.0 °F - 46.4 °F 87% 30.04 in 10.0 mi North 5.8 mph - 0.11 in Rain Light Rain
2:15 AM 50.0 °F - 46.4 °F 87% 30.03 in 10.0 mi North 5.8 mph - 0.01 in   Overcast
2:34 AM 50.0 °F - 46.4 °F 87% 30.02 in 10.0 mi North 6.9 mph - 0.01 in Thunderstorm Overcast
2:54 AM 48.2 °F - 46.4 °F 93% 30.02 in 10.0 mi North 5.8 mph - 0.01 in   Mostly Cloudy
3:15 AM 48.2 °F - 44.6 °F 87% 30.02 in 10.0 mi North 9.2 mph - N/A   Mostly Cloudy
3:34 AM 48.2 °F - 44.6 °F 87% 30.03 in 10.0 mi North 8.1 mph - N/A   Mostly Cloudy
3:54 AM 48.2 °F - 44.6 °F 87% 30.03 in 10.0 mi North 9.2 mph - N/A   Mostly Cloudy
4:15 AM 48.2 °F - 44.6 °F 87% 30.03 in 10.0 mi North 9.2 mph - N/A   Scattered Clouds
4:54 AM 48.2 °F - 44.6 °F 87% 30.03 in 10.0 mi North 6.9 mph - N/A   Mostly Cloudy
5:15 AM 48.2 °F - 42.8 °F 82% 30.03 in 10.0 mi North 6.9 mph - N/A Rain Light Rain
5:34 AM 48.2 °F - 42.8 °F 82% 30.03 in 10.0 mi North 6.9 mph - N/A   Scattered Clouds
5:54 AM 48.2 °F - 42.8 °F 82% 30.03 in 10.0 mi North 6.9 mph - N/A   Scattered Clouds
6:15 AM 48.2 °F - 42.8 °F 82% 30.03 in 10.0 mi North 6.9 mph - N/A   Clear
6:34 AM 48.2 °F - 42.8 °F 82% 30.03 in 10.0 mi North 5.8 mph - N/A   Clear
7:15 AM 46.4 °F 42.4 °F 41.0 °F 81% 30.04 in 10.0 mi North 8.1 mph - N/A   Clear
7:34 AM 46.4 °F 41.9 °F 39.2 °F 76% 30.04 in 10.0 mi North 9.2 mph - N/A   Clear
7:54 AM 46.4 °F 41.9 °F 39.2 °F 76% 30.05 in 10.0 mi North 9.2 mph - N/A   Clear
8:14 AM 46.4 °F 42.9 °F 39.2 °F 76% 30.05 in 10.0 mi North 6.9 mph - N/A   Clear
8:34 AM 46.4 °F 42.4 °F 39.2 °F 76% 30.06 in 10.0 mi North 8.1 mph - N/A   Clear
8:54 AM 46.4 °F 43.5 °F 39.2 °F 76% 30.06 in 10.0 mi NNW 5.8 mph - N/A   Clear
9:14 AM 48.2 °F - 39.2 °F 71% 30.06 in 10.0 mi North 6.9 mph - N/A   Clear
9:34 AM 48.2 °F - 39.2 °F 71% 30.06 in 10.0 mi North 6.9 mph - N/A   Clear
9:54 AM 50.0 °F - 39.2 °F 66% 30.06 in 10.0 mi North 6.9 mph - N/A   Clear
10:34 AM 51.8 °F - 37.4 °F 58% 30.07 in 10.0 mi North 11.5 mph - N/A   Clear
10:54 AM 55.4 °F - 35.6 °F 47% 30.06 in 10.0 mi North 10.4 mph - N/A   Clear
11:14 AM 57.2 °F - 35.6 °F 44% 30.06 in 10.0 mi NNE 12.7 mph - N/A   Clear
11:34 AM 57.2 °F - 33.8 °F 41% 30.06 in 10.0 mi NNE 15.0 mph 18.4 mph N/A   Scattered Clouds
11:54 AM 57.2 °F - 33.8 °F 41% 30.06 in 10.0 mi NNE 11.5 mph 18.4 mph N/A   Clear
12:14 PM 59.0 °F - 30.2 °F 34% 30.05 in 10.0 mi North 10.4 mph 16.1 mph N/A   Scattered Clouds
12:34 PM 59.0 °F - 32.0 °F 36% 30.05 in 10.0 mi North 12.7 mph - N/A   Clear
12:54 PM 60.8 °F - 32.0 °F 34% 30.04 in 10.0 mi North 10.4 mph 20.7 mph N/A   Scattered Clouds
1:14 PM 60.8 °F - 32.0 °F 34% 30.03 in 10.0 mi North 15.0 mph 20.7 mph N/A   Scattered Clouds
1:34 PM 60.8 °F - 33.8 °F 36% 30.03 in 10.0 mi North 12.7 mph 20.7 mph N/A   Clear
1:54 PM 60.8 °F - 33.8 °F 36% 30.02 in 10.0 mi North 13.8 mph 24.2 mph N/A   Scattered Clouds
2:14 PM 62.6 °F - 30.2 °F 30% 30.01 in 10.0 mi NNE 11.5 mph 18.4 mph N/A   Scattered Clouds
2:34 PM 62.6 °F - 30.2 °F 30% 30.01 in 10.0 mi NNE 13.8 mph 17.3 mph N/A   Mostly Cloudy
2:54 PM 60.8 °F - 30.2 °F 31% 30.00 in 10.0 mi NNW 12.7 mph 17.3 mph N/A   Mostly Cloudy
3:15 PM 57.2 °F - 35.6 °F 44% 30.02 in 10.0 mi NNE 25.3 mph 28.8 mph N/A   Mostly Cloudy
3:34 PM 48.2 °F - 42.8 °F 82% 30.04 in 10.0 mi NNW 12.7 mph 23.0 mph 0.01 in Rain Light Rain
3:54 PM 48.2 °F - 42.8 °F 82% 30.03 in 10.0 mi NNW 11.5 mph - 0.01 in Rain Light Rain
4:15 PM 48.2 °F - 42.8 °F 82% 30.02 in 10.0 mi NNW 3.5 mph - N/A Rain Light Rain
4:34 PM 51.8 °F - 42.8 °F 71% 30.01 in 10.0 mi NNW 6.9 mph - 0.01 in   Scattered Clouds
4:54 PM 53.6 °F - 41.0 °F 62% 30.01 in 10.0 mi NNW 11.5 mph 16.1 mph 0.01 in   Clear
5:15 PM 55.4 °F - 37.4 °F 51% 30.01 in 10.0 mi North 13.8 mph - N/A   Clear
5:54 PM 55.4 °F - 37.4 °F 51% 30.02 in 10.0 mi North 10.4 mph 21.9 mph N/A   Mostly Cloudy
6:14 PM 55.4 °F - 35.6 °F 47% 30.02 in 10.0 mi North 10.4 mph - N/A   Scattered Clouds
6:34 PM 55.4 °F - 35.6 °F 47% 30.02 in 10.0 mi North 9.2 mph - N/A   Clear
6:54 PM 55.4 °F - 33.8 °F 44% 30.02 in 10.0 mi North 8.1 mph - N/A   Clear
7:14 PM 53.6 °F - 33.8 °F 47% 30.02 in 10.0 mi North 6.9 mph - N/A   Clear
7:34 PM 51.8 °F - 33.8 °F 50% 30.02 in 10.0 mi North 6.9 mph - N/A   Clear
7:54 PM 48.2 °F - 33.8 °F 58% 30.03 in 10.0 mi North 5.8 mph - N/A   Clear
8:14 PM 48.2 °F - 33.8 °F 58% 30.03 in 10.0 mi North 5.8 mph - N/A   Clear
8:34 PM 48.2 °F - 33.8 °F 58% 30.04 in 10.0 mi NNW 5.8 mph - N/A   Clear
8:54 PM 48.2 °F - 33.8 °F 58% 30.04 in 10.0 mi NNW 5.8 mph - N/A   Clear
9:14 PM 46.4 °F 42.9 °F 35.6 °F 66% 30.04 in 10.0 mi NNW 6.9 mph - N/A   Clear
9:34 PM 46.4 °F 43.5 °F 35.6 °F 66% 30.05 in 10.0 mi North 5.8 mph - N/A   Clear
9:54 PM 44.6 °F 41.4 °F 33.8 °F 66% 30.05 in 10.0 mi North 5.8 mph - N/A   Clear
10:14 PM 44.6 °F 41.4 °F 35.6 °F 71% 30.05 in 10.0 mi NNW 5.8 mph - N/A   Clear
10:34 PM 44.6 °F 41.4 °F 35.6 °F 71% 30.05 in 10.0 mi NNW 5.8 mph - N/A   Clear
10:54 PM 42.8 °F 39.3 °F 35.6 °F 76% 30.05 in 10.0 mi NNW 5.8 mph - N/A   Clear
11:14 PM 42.8 °F 39.3 °F 35.6 °F 76% 30.05 in 10.0 mi NNW 5.8 mph - N/A   Clear
11:34 PM 42.8 °F 39.3 °F 35.6 °F 76% 30.05 in 10.0 mi NNW 5.8 mph - N/A   Clear
11:54 PM 42.8 °F 40.1 °F 35.6 °F 76% 30.05 in 10.0 mi NNW 4.6 mph - N/A   Clear